sat.trackr.live / text

‹ back to catalog

STARLINK-31599

NORAD 59327 · 2024-057H

PAYLOAD ACTIVE UNKNOWN

§ Identity

Operator
Country
US
Launch date
2024-03-25
Launch site
AFETR
Launch vehicle
Mass (kg)
RCS (m²)

Purposes: comms

External: N2YO · Heavens-Above · Gunter

§ Orbital elements

Epoch: 2026-09-20T03:53:32.400384Z

Period
94.27 min
Inclination
42.9994°
Eccentricity
0.0001004
Mean motion
15.27579589 rev/d
Perigee alt
482.4 km
Apogee alt
483.7 km
Semi-major
6,861.2 km
B*
9.5745e-6
RAAN
168.5787°
Arg perigee
270.1515°
Mean anomaly
89.9222°
Rev number
13,958

§ Raw data

STARLINK-315991 59327U 24057H   26263.16218056  .00000002  00000+0  95745-5 0  99982 59327  42.9994 168.5787 0001004 270.1515  89.9222 15.27579589139589

JSON: /api/v1/satellites/59327 · /tle

For live sub-satellite position, see the globe view (requires WebGL).

§ Visibility from observer

Set your observer location to see the next 7 days of passes ≥ 10°. The values pass through the URL so the page stays shareable.

No JS? Fill the form by hand. The geolocation button needs JavaScript.